Regional Weather Roundup
Issued by NWS

Home | Current Version | Previous Version | Graphics & Text | Print | Product List | Glossary On
Versions: 1 2 3 4 5 6 7 8 9 10 11 12 13 14 15 16 17 18 19 20 21 22 23 24 25 26 27
000
ASUS45 KSLC 241110
RWRUT

UTAH REGIONAL WEATHER ROUNDUP
NATIONAL WEATHER SERVICE SALT LAKE CITY UT
500 AM MDT SUN JUL 24 2016

UTZ001>011-023>025-241200-

NORTHERN UTAH

CITY           SKY/WX    TMP DP  RH WIND       PRES   REMARKS
BRIGHAM CITY     N/A     61  35  37 N3        30.08S
HILL AFB       CLEAR     64  28  26 E21G28    30.10R
LOGAN          CLEAR     56  41  57 NE3       30.13R
OGDEN          CLEAR     63  30  28 S8        30.07S
PROVO AIRPORT  CLEAR     61  39  44 SE10      30.08S
SALT LAKE CITY CLEAR     66  42  41 SE3       30.06S
VERNAL         CLEAR     60  39  45 CALM      30.12S
WENDOVER       CLEAR     70  30  23 CALM      30.09S
HEBER CITY     CLEAR     48  36  61 E5        30.18R

$$

UTZ012>022-026-027-241200-

SOUTHERN/CENTRAL UTAH

CITY           SKY/WX    TMP DP  RH WIND       PRES   REMARKS
BLANDING       MOCLDY    69  48  48 SW3       30.22S
BRYCE CANYON   PTCLDY    47  35  63 W5        30.31R
CEDAR CITY     CLEAR     67  35  30 S7        30.13S
DELTA          CLEAR     63  27  25 S6        30.07R
MILFORD        CLEAR     63  23  21 S3        30.10R
MOAB/CYNLANDS  CLEAR     79  39  23 SE8       30.01R
PRICE          CLEAR     66  28  24 NE6       30.13S
ST GEORGE      SUNNY     82  39  21 N7        29.91R
KANAB          CLEAR     64  37  36 NE5       30.12R

$$

REGIONAL REPORTS     COLORADO/ARIZONA

CITY           SKY/WX    TMP DP  RH WIND       PRES   REMARKS
CRAIG, CO      CLEAR     54  40  59 SW3       30.22R
GRAND JUNCTION PTCLDY    75  42  30 S15       30.08F
RIFLE          CLOUDY    67  45  45 E6        30.21R
MONTROSE       PTCLDY    66  43  43 SE7       30.22R
CORTEZ         CLOUDY    62  44  51 NE7       30.19S
PAGE, AZ       CLEAR     81  40  23 CALM      30.00R
GRAND CANYON   CLEAR     56  48  74 NE5       30.24F
KINGMAN        CLEAR     81  49  32 CALM      29.96R
FLAGSTAFF      CLEAR     55  47  74 CALM      30.27F

$$

REGIONAL REPORTS    NEVADA/IDAHO/WYOMING

CITY           SKY/WX    TMP DP  RH WIND       PRES   REMARKS
LAS VEGAS, NV  CLEAR     92  41  17 SW5       29.76S
ELY            PTCLDY    47  20  34 S8        30.22S
ELKO           CLEAR     51  31  46 CALM      30.17R
POCATELLO, ID  CLEAR     57  25  29 S8        30.15S
BURLEY         CLEAR     52  35  52 S3        30.10R
EVANSTON, WY   CLOUDY    54  24  31 NE5       30.28S
ROCK SPRINGS   CLOUDY    57  29  34 E8        30.26R
KEMMERER         N/A     45  30  57 N10       30.29F

$$




USA.gov is the U.S. government's official web portal to all federal, state and local government web resources and services.